Weather History for Olivia, MN

Change the Weather History Date:

Friday, October 5, 2012

  Actual Average (KRWF) Record (KRWF)
Temperature  
Mean Temperature 39 °F -  
Max Temperature 46 °F 63 °F 92 °F (1947)
Min Temperature 32 °F 41 °F 22 °F (1952)
Degree Days  
Heating Degree Days 26    
Moisture  
Dew Point 26 °F    
Average Humidity 62    
Maximum Humidity 81    
Minimum Humidity 46    
Precipitation  
Precipitation 0.00 in - - ()
Sea Level Pressure  
Sea Level Pressure 30.19 in    
Wind  
Wind Speed 17 mph (WNW)    
Max Wind Speed 24 mph    
Max Gust Speed 34 mph    
Visibility 10 miles    
Events      
Averages and records for this station are not official NWS values.
T = Trace of Precipitation, MM = Missing Value Source: NWS Daily Summary

Daily Weather History Graph

Daily Weather History Graph

Search for Another Location

Airport:

Trip Planner

Search our weather history database for the weather conditions in past years. The results will help you decide how hot, cold, wet, or windy it might be!

Date:

Astronomy

Oct. 05, 2012 Rise Set
Actual Time 7:23 AM CDT 6:52 PM CDT
Civil Twilight 6:54 AM CDT 7:21 PM CDT
Nautical Twilight 6:20 AM CDT 7:55 PM CDT
Astronomical Twilight 5:46 AM CDT 8:29 PM CDT
Moon 10:04 PM CDT (10/5) 12:43 PM CDT (10/5)
Length of Visible Light 12h 27m
Length of Day
11h 28m
Waning Gibbous, 74% of the Moon is Illuminated
Oct 5
Waning Gibbous
Oct 8
Last Quarter
Oct 15
New
Oct 21
First Quarter
Oct 29
Full

Hourly Weather History & Observations

Time (CDT) Temp. Windchill Dew Point Humidity Pressure Visibility Wind Dir Wind Speed Gust Speed Precip Events Conditions
12:11 AM 42.8 °F 35.4 °F 32.0 °F 66% 30.20 in 10.0 mi WNW 15.0 mph 23.0 mph N/A   Overcast
12:31 AM 42.8 °F 35.1 °F 30.2 °F 61% 30.20 in 10.0 mi WNW 16.1 mph 20.7 mph N/A   Overcast
12:52 AM 42.8 °F 34.3 °F 28.4 °F 57% 30.20 in 10.0 mi WNW 19.6 mph 29.9 mph N/A   Overcast
1:11 AM 42.8 °F 34.8 °F 26.6 °F 53% 30.19 in 10.0 mi WNW 17.3 mph 21.9 mph N/A   Overcast
1:31 AM 42.8 °F 35.8 °F 26.6 °F 53% 30.19 in 10.0 mi WNW 13.8 mph 26.5 mph N/A   Overcast
1:51 AM 41.0 °F 32.5 °F 26.6 °F 57% 30.20 in 10.0 mi WNW 17.3 mph 26.5 mph N/A   Mostly Cloudy
2:11 AM 39.2 °F 32.5 °F 26.6 °F 61% 30.20 in 10.0 mi NW 10.4 mph - N/A   Mostly Cloudy
2:31 AM 39.2 °F 32.0 °F 26.6 °F 61% 30.19 in 10.0 mi WNW 11.5 mph - N/A   Mostly Cloudy
2:51 AM 39.2 °F 30.8 °F 26.6 °F 61% 30.18 in 10.0 mi WNW 15.0 mph 18.4 mph N/A   Clear
3:11 AM 35.6 °F 25.9 °F 26.6 °F 70% 30.19 in 10.0 mi WNW 16.1 mph - N/A   Clear
3:32 AM 35.6 °F 27.5 °F 26.6 °F 70% 30.19 in 10.0 mi West 11.5 mph - N/A   Clear
3:51 AM 33.8 °F 24.8 °F 26.6 °F 75% 30.19 in 10.0 mi West 12.7 mph - N/A   Clear
4:12 AM 33.8 °F 24.8 °F 26.6 °F 75% 30.19 in 10.0 mi WNW 12.7 mph - N/A   Clear
4:31 AM 33.8 °F 24.3 °F 26.6 °F 75% 30.19 in 10.0 mi West 13.8 mph - N/A   Clear
4:51 AM 33.8 °F 23.9 °F 26.6 °F 75% 30.19 in 10.0 mi WNW 15.0 mph - N/A   Clear
5:11 AM 33.8 °F 24.3 °F 26.6 °F 75% 30.19 in 10.0 mi West 13.8 mph - N/A   Clear
5:31 AM 33.8 °F 23.9 °F 28.4 °F 81% 30.18 in 10.0 mi West 15.0 mph 20.7 mph N/A   Clear
5:51 AM 33.8 °F 23.9 °F 28.4 °F 81% 30.18 in 10.0 mi West 15.0 mph - N/A   Clear
6:11 AM 32.0 °F 21.6 °F 26.6 °F 80% 30.18 in 10.0 mi West 15.0 mph 18.4 mph N/A   Clear
6:30 AM 32.0 °F 22.1 °F 26.6 °F 80% 30.18 in 10.0 mi West 13.8 mph - N/A   Clear
6:52 AM 32.0 °F 23.0 °F 26.6 °F 80% 30.18 in 10.0 mi West 11.5 mph - N/A   Clear
7:11 AM 32.0 °F 22.1 °F 26.6 °F 80% 30.18 in 10.0 mi West 13.8 mph - N/A   Clear
7:30 AM 32.0 °F 22.1 °F 26.6 °F 80% 30.18 in 10.0 mi WNW 13.8 mph - N/A   Clear
7:51 AM 32.0 °F 21.6 °F 26.6 °F 80% 30.18 in 10.0 mi West 15.0 mph - N/A   Clear
8:11 AM 33.8 °F 23.9 °F 28.4 °F 81% 30.20 in 10.0 mi West 15.0 mph 20.7 mph N/A   Clear
8:31 AM 33.8 °F 22.8 °F 26.6 °F 75% 30.20 in 10.0 mi West 18.4 mph - N/A   Clear
8:52 AM 33.8 °F 23.2 °F 26.6 °F 75% 30.20 in 10.0 mi West 17.3 mph 23.0 mph N/A   Clear
9:10 AM 35.6 °F 25.5 °F 26.6 °F 70% 30.20 in 10.0 mi WNW 17.3 mph 25.3 mph N/A   Clear
9:31 AM 35.6 °F 24.8 °F 26.6 °F 70% 30.20 in 10.0 mi WNW 19.6 mph 29.9 mph N/A   Clear
9:51 AM 35.6 °F 25.2 °F 26.6 °F 70% 30.20 in 10.0 mi NW 18.4 mph 27.6 mph N/A   Clear
10:11 AM 37.4 °F 27.2 °F 26.6 °F 65% 30.20 in 10.0 mi NW 19.6 mph 29.9 mph N/A   Clear
10:32 AM 39.2 °F 29.3 °F 26.6 °F 61% 30.19 in 10.0 mi WNW 20.7 mph 25.3 mph N/A   Clear
10:51 AM 39.2 °F 29.0 °F 26.6 °F 61% 30.18 in 10.0 mi NW 21.9 mph 29.9 mph N/A   Clear
11:11 AM 39.2 °F 29.8 °F 26.6 °F 61% 30.18 in 10.0 mi WNW 18.4 mph 28.8 mph N/A   Clear
11:31 AM 41.0 °F 31.1 °F 24.8 °F 53% 30.18 in 10.0 mi NW 23.0 mph 28.8 mph N/A   Clear
12:11 PM 42.8 °F 33.8 °F 24.8 °F 49% 30.17 in 10.0 mi WNW 21.9 mph 28.8 mph N/A   Scattered Clouds
12:31 PM 42.8 °F 33.5 °F 24.8 °F 49% 30.18 in 10.0 mi NW 23.0 mph 27.6 mph N/A   Scattered Clouds
12:51 PM 42.8 °F 33.8 °F 24.8 °F 49% 30.18 in 10.0 mi NW 21.9 mph 29.9 mph N/A   Scattered Clouds
1:31 PM 44.6 °F 36.4 °F 24.8 °F 46% 30.17 in 10.0 mi NW 20.7 mph 34.5 mph N/A   Clear
1:51 PM 44.6 °F 36.4 °F 24.8 °F 46% 30.17 in 10.0 mi WNW 20.7 mph 31.1 mph N/A   Scattered Clouds
2:10 PM 44.6 °F 35.9 °F 24.8 °F 46% 30.17 in 10.0 mi NW 23.0 mph 31.1 mph N/A   Scattered Clouds
2:31 PM 46.4 °F 39.2 °F 26.6 °F 46% 30.17 in 10.0 mi NW 18.4 mph 29.9 mph N/A   Mostly Cloudy
2:51 PM 46.4 °F 38.7 °F 26.6 °F 46% 30.16 in 10.0 mi WNW 20.7 mph 28.8 mph N/A   Mostly Cloudy
3:11 PM 46.4 °F 38.7 °F 26.6 °F 46% 30.17 in 10.0 mi WNW 20.7 mph 28.8 mph N/A   Mostly Cloudy
3:31 PM 46.4 °F 38.1 °F 26.6 °F 46% 30.17 in 10.0 mi NW 24.2 mph 29.9 mph N/A   Overcast
3:51 PM 42.8 °F 34.0 °F 23.0 °F 46% 30.17 in 10.0 mi NW 20.7 mph 34.5 mph N/A   Overcast
4:12 PM 42.8 °F 34.3 °F 23.0 °F 46% 30.17 in 10.0 mi WNW 19.6 mph 32.2 mph N/A   Overcast
4:31 PM 42.8 °F 33.8 °F 23.0 °F 46% 30.17 in 10.0 mi WNW 21.9 mph 28.8 mph N/A   Overcast
4:51 PM 42.8 °F 33.5 °F 24.8 °F 49% 30.17 in 10.0 mi NW 23.0 mph 33.4 mph N/A   Overcast
5:11 PM 42.8 °F 34.0 °F 24.8 °F 49% 30.17 in 10.0 mi NW 20.7 mph 29.9 mph N/A   Overcast
5:32 PM 42.8 °F 33.8 °F 24.8 °F 49% 30.17 in 10.0 mi NW 21.9 mph 28.8 mph N/A   Overcast
5:51 PM 42.8 °F 34.3 °F 26.6 °F 53% 30.18 in 10.0 mi NW 19.6 mph 25.3 mph N/A   Overcast
6:10 PM 41.0 °F 31.6 °F 24.8 °F 53% 30.18 in 10.0 mi NW 20.7 mph 29.9 mph N/A   Overcast
6:31 PM 41.0 °F 32.2 °F 24.8 °F 53% 30.19 in 10.0 mi NW 18.4 mph 27.6 mph N/A   Overcast
6:51 PM 41.0 °F 31.4 °F 24.8 °F 53% 30.19 in 10.0 mi NW 21.9 mph 29.9 mph N/A   Overcast
7:11 PM 39.2 °F 29.6 °F 23.0 °F 52% 30.19 in 10.0 mi NW 19.6 mph 27.6 mph N/A   Overcast
7:31 PM 39.2 °F 29.3 °F 24.8 °F 56% 30.20 in 10.0 mi NW 20.7 mph 31.1 mph N/A   Overcast
7:51 PM 39.2 °F 30.2 °F 24.8 °F 56% 30.20 in 10.0 mi WNW 17.3 mph 23.0 mph N/A   Overcast
8:11 PM 39.2 °F 29.8 °F 24.8 °F 56% 30.19 in 10.0 mi WNW 18.4 mph 26.5 mph N/A   Overcast
8:31 PM 39.2 °F 30.5 °F 24.8 °F 56% 30.20 in 10.0 mi WNW 16.1 mph 24.2 mph N/A   Overcast
8:51 PM 39.2 °F 30.2 °F 24.8 °F 56% 30.20 in 10.0 mi NW 17.3 mph 25.3 mph N/A   Mostly Cloudy
9:11 PM 39.2 °F 28.7 °F 26.6 °F 61% 30.20 in 10.0 mi NW 23.0 mph 29.9 mph N/A   Overcast
9:31 PM 39.2 °F 30.2 °F 26.6 °F 61% 30.21 in 10.0 mi NW 17.3 mph 23.0 mph N/A   Overcast
9:51 PM 39.2 °F 29.3 °F 26.6 °F 61% 30.21 in 10.0 mi NW 20.7 mph 27.6 mph N/A   Overcast
10:31 PM 39.2 °F 30.2 °F 28.4 °F 65% 30.21 in 10.0 mi NW 17.3 mph 21.9 mph N/A   Overcast
10:51 PM 35.6 °F 25.9 °F 26.6 °F 70% 30.22 in 10.0 mi NW 16.1 mph 25.3 mph N/A   Mostly Cloudy
11:31 PM 35.6 °F 24.5 °F 28.4 °F 75% 30.21 in 10.0 mi NW 20.7 mph 26.5 mph N/A   Mostly Cloudy
11:51 PM 33.8 °F 23.2 °F 26.6 °F 75% 30.21 in 10.0 mi NW 17.3 mph 20.7 mph N/A   Scattered Clouds